Location: L�beck
(53.8752°N, 10.6787°E)
Time: 07:44:14
(UTC+02:00)

ISS - Visible Passes

Search period start: 09 May 2021 00:00
Search period end: 19 May 2021 00:00
Orbit: 418 x 421 km, 51.6° (Epoch: 08 May)

Date Brightness Start Highest point End Pass type
(mag) Time Alt. Az. Time Alt. Az. Time Alt. Az.
09 May -2.4 02:03:26 26° ESE 02:03:26 26° ESE 02:05:29 10° E visible
09 May -3.7 03:36:22 16° WSW 03:38:56 59° S 03:42:16 10° E visible
10 May -1.3 01:17:27 13° E 01:17:27 13° E 01:17:58 10° E visible
10 May -3.7 02:50:22 34° SW 02:51:33 55° S 02:54:52 10° E visible
10 May -3.5 04:24:52 10° W 04:28:10 50° SSW 04:31:28 10° ESE visible
11 May -3.5 02:04:21 48° SSE 02:04:21 48° SSE 02:07:28 10° E visible
11 May -3.7 03:37:28 10° W 03:40:47 56° S 03:44:07 10° ESE visible
12 May -2.3 01:18:16 25° ESE 01:18:16 25° ESE 01:20:01 10° E visible
12 May -3.8 02:51:12 19° WSW 02:53:24 59° S 02:56:45 10° ESE visible
12 May -3.0 04:26:50 10° W 04:29:57 34° SSW 04:33:02 10° SE visible
13 May -1.4 00:32:06 13° E 00:32:06 13° E 00:32:33 10° E visible
13 May -3.8 02:05:02 39° WSW 02:06:00 59° S 02:09:20 10° E visible
13 May -3.4 03:39:22 10° W 03:42:36 42° SSW 03:45:49 10° SE visible
14 May -3.7 01:18:38 55° S 01:18:38 55° S 01:21:56 10° E visible
14 May -3.6 02:51:57 10° W 02:55:14 50° SSW 02:58:31 10° ESE visible
14 May -2.4 04:28:59 10° W 04:31:35 20° SSW 04:34:10 10° SSE visible
14 May -2.4 22:52:24 10° SSW 22:54:54 19° SSE 22:55:39 18° SE visible
15 May -3.6 00:27:57 10° WSW 00:31:14 49° SSE 00:34:31 10° E visible
15 May -3.8 02:04:31 10° W 02:07:51 56° S 02:11:10 10° ESE visible
15 May -2.8 03:41:24 10° W 03:44:18 27° SSW 03:47:12 10° SSE visible
15 May -2.0 22:05:46 10° S 22:07:40 14° SE 22:09:34 10° ESE visible
15 May -3.4 23:40:39 10° SW 23:43:51 41° SSE 23:47:04 10° E visible
16 May -3.8 01:17:07 10° W 01:20:27 59° S 01:23:47 10° ESE visible
16 May -3.1 02:53:53 10° W 02:56:59 34° SSW 03:00:05 10° SE visible
16 May -3.1 22:53:27 10° SW 22:56:31 33° SSE 22:59:36 10° E visible
17 May -3.8 00:29:42 10° WSW 00:33:03 59° S 00:36:23 10° E visible
17 May -3.4 02:06:25 10° W 02:09:38 42° SSW 02:12:51 10° SE visible
17 May -2.1 03:43:50 10° WSW 03:45:51 15° SW 03:47:53 10° S visible
17 May -2.7 22:06:21 10° SSW 22:09:12 26° SSE 22:12:04 10° E visible
17 May -3.7 23:42:20 10° WSW 23:45:38 55° S 23:48:57 10° E visible
18 May -3.6 01:18:58 10° W 01:22:15 50° SSW 01:22:56 42° SSE visible
18 May -3.6 22:54:59 10° WSW 22:58:15 49° SSE 23:01:32 10° E visible
